Location: Belloy
(55.7522°N, 118.2333°W)
Time: 23:50:22
(UTC+00:00)

Envisat - Pass Details

Date: 02 December 2021
Orbit: 764 x 766 km, 98.2° (Epoch: 27 January)

Event Time Altitude Azimuth Distance (km) Brightness Sun altitude
Rises 01:24:29 0° 214° (SW) 3,226 7.1 -15.6°
Reaches altitude 10° 01:27:37 10° 235° (SW) 2,305 6.6 -16.0°
Maximum altitude 01:30:51 17° 275° (W) 1,881 6.0 -16.4°
Drops below altitude 10° 01:34:06 10° 315° (NW) 2,317 5.9 -16.9°
Sets 01:37:17 0° 335° (NNW) 3,249 6.4 -17.3°
